Location: Campillo
(40.8621°N, 4.2488°W)
Time: 12:31:14
(UTC+00:00)

Meteor 1-18 Rocket - Pass Details

Date: 11 May 2021
Orbit: 836 x 909 km, 81.2° (Epoch: 13 June)

Event Time Altitude Azimuth Distance (km) Brightness Sun altitude
Exits shadow 23:16:19 70° 32° (NNE) 906 4.3 -29.5°
Drops below altitude 10° 23:21:18 10° 12° (NNE) 2,476 7.4 -29.8°
Sets 23:23:43 0° 11° (N) 3,408 8.3 -29.9°
